Weather in Keptin

Russia / Sakha (Yakutia) Republic     62°20′28″N   124°26′43″E
temp.,
°C
wind,
m/s
gust,
m/s
humid.,
%
clouds,
%
prec.,
mm/h
press.,
hPa
HPBL,
m
8 march, mon
mon800:00−13se3596100 0.5 1005162
03:00−14ese2496100 0.9 1003120
06:00−14ese2496100 0.4 1001116
09:00−13ese2496100 0.6 1000158
12:00−10ese2395100 0.3 999247
15:00−9e2295100 0.6 1000240
18:00−12ene239699 0.2 100292
21:00−15ene2297100 0.4 100544
9 march, tue
tue900:00−16ne1197100 0.3 100620
03:00−16wnw229796 0.4 100824
06:00−17wnw239798 0.2 101087
09:00−15wnw259699 0.4 1011237
12:00−11w479195 0.1 1012689
15:00−10wsw478998 0.2 1011749
18:00−13ssw2393100 0.1 101059
21:00−15s389475 0.1 1009171
10 march, wed
wed1000:00−13sse41192100 0.0 1005360
03:00−11s51095100 0.5 1001624
06:00−10s41094100 0.8 999487
09:00−10w81285100 1.8 1000911
12:00−11w71185100 0.1 10031225
15:00−12wsw61183100 0.3 10061434
18:00−13w51286100 0.2 10081325
21:00−14w51287100 0.2 10101117
11 march, thu
thu1100:00−16w51189100 0.1 1011894
03:00−18wsw31195100 0.1 1013484
06:00−19wsw31195100 0.0 1014344
09:00−18w4129393 0.1 1015717
12:00−14w488391 0.0 1016949
15:00−13w488095 0.0 10161035
18:00−16w238988 0.0 101775
21:00−20ssw229657 0.0 101720
12 march, fri
fri1200:00−20sse239740 0.0 101439
03:00−17se499469 0.0 1010238
06:00−15se51294100 0.0 1005352
09:00−12sse51195100 0.9 1000501
12:00−6s4994100 0.8 997581
15:00−1sw4997100 1.5 995683
18:00−2wnw51384100 1.9 9951112
21:00−7wnw31192100 1.9 999647